Flag for Switzerland Weather past 2 weeks in Pratteln, Basel-Land, Switzerland

Now
64 °F

Broken clouds.


Feels Like: 64 °F
Forecast: 49 / 64 °F
Wind: 13 mph from West

Location: Bale-Mulhouse

Current Time: Jul 28, 2015 at 10:39:56 AM

Latest Report: Jul 28, 2015 at 10:00 AM


Visibility: N/A

Pressure: 29.92 "Hg

Humidity: 60%

Dew point: 50 °F

Location of PrattelnLocation

Historic Weather in Pratteln — Graph

°F

Pratteln temperature yesterday

Maximum temperature yesterday: 75 °F (at 4:00 PM)
Minimum temperature yesterday: 59 °F (at 12:30 AM)
Average temperature yesterday: 67 °F

Past Weeks' High & Low Weather Summary

 TemperatureHumidityPressure
High97 °F (Jul 17, 3:00 PM)100% (Jul 26, 5:00 AM)30.15 "Hg (Jul 26, 5:00 AM)
Low46 °F (Jul 26, 6:00 AM)22% (Jul 17, 4:30 PM)29.71 "Hg (Jul 24, 5:30 PM)
Average74 °F62%29.99 "Hg
* Reported Jul 13 9:00 AM — Jul 28 9:30 AM, Pratteln, Weather by CustomWeather, © 2015

Note: Actual official high and low records may vary slightly from our data, if they occured in-between our weather recording intervals... More about our weather records

Advertising

Pratteln weather history for previous 24 hours

 ConditionsComfort  
Time TempWeatherWind HumidityBarometerVisibility
9:30 AM
Tue, Jul 28
64 °FPartly sunny.13 mph60%29.92 "HgN/A
9:00 AM64 °FPartly sunny.15 mph60%29.92 "HgN/A
8:30 AM64 °FPartly sunny.12 mph64%29.89 "HgN/A
8:00 AM64 °FBroken clouds.9 mph64%29.89 "HgN/A
7:30 AM64 °FBroken clouds.9 mph64%29.89 "HgN/A
7:00 AM64 °FPartly cloudy.12 mph64%29.89 "HgN/A
6:30 AM64 °FPassing clouds.10 mph64%29.89 "HgN/A
6:00 AM64 °FPassing clouds.12 mph64%29.86 "HgN/A
5:30 AM64 °FOvercast.10 mph64%29.86 "HgN/A
5:00 AM64 °FPassing clouds.10 mph64%29.86 "HgN/A
4:30 AM64 °FPassing clouds.7 mph64%29.86 "HgN/A
4:00 AM64 °FPassing clouds.9 mph64%29.86 "HgN/A
3:30 AM66 °FPassing clouds.12 mph56%29.86 "HgN/A
3:00 AM66 °FPassing clouds.9 mph56%29.86 "HgN/A
2:30 AM64 °FPassing clouds.7 mph64%29.86 "HgN/A
2:00 AM64 °FPassing clouds.7 mph64%29.86 "HgN/A
1:30 AM64 °FClear.6 mph64%29.86 "Hg10 mi
1:00 AM64 °FClear.6 mph64%29.86 "Hg10 mi
11:30 PM
Mon, Jul 27
64 °FPassing clouds.8 mph64%29.86 "HgN/A
11:00 PM64 °FPassing clouds.6 mph64%29.86 "HgN/A
10:30 PM66 °FClear.8 mph60%29.86 "Hg10 mi
10:00 PM64 °FSunny.6 mph64%29.86 "Hg10 mi
9:30 PM68 °FSunny.6 mph56%29.86 "Hg10 mi
9:00 PM70 °FSunny.8 mph53%29.86 "Hg10 mi
8:30 PM70 °FPassing clouds.8 mph50%29.86 "HgN/A
8:00 PM72 °FPassing clouds.12 mph47%29.83 "HgN/A
7:30 PM73 °FPassing clouds.12 mph44%29.83 "HgN/A
7:00 PM73 °FPassing clouds.14 mph44%29.83 "HgN/A
6:30 PM73 °FPassing clouds.9 mph47%29.83 "HgN/A
6:00 PM75 °FPassing clouds.13 mph44%29.83 "HgN/A
5:30 PM75 °FPassing clouds.15 mph44%29.83 "HgN/A
5:00 PM75 °FBroken clouds.15 mph44%29.83 "HgN/A
4:30 PM75 °FBroken clouds.17 mph44%29.83 "HgN/A
4:00 PM75 °FBroken clouds.13 mph50%29.83 "HgN/A
3:30 PM73 °FBroken clouds.16 mph50%29.83 "HgN/A
3:00 PM73 °FBroken clouds.15 mph50%29.83 "HgN/A
2:30 PM72 °FBroken clouds.16 mph53%29.83 "HgN/A
2:00 PM70 °FBroken clouds.13 mph60%29.83 "HgN/A
1:30 PM68 °FPartly sunny.14 mph60%29.86 "HgN/A
1:00 PM68 °FBroken clouds.14 mph60%29.86 "HgN/A
12:30 PM70 °FBroken clouds.17 mph64%29.83 "HgN/A
12:00 PM70 °FPartly sunny.21 mph60%29.83 "HgN/A
11:30 AM70 °FBroken clouds.23 mph57%29.83 "HgN/A
11:00 AM70 °FScattered clouds.17 mph60%29.80 "HgN/A
10:30 AM70 °FScattered clouds.17 mph60%29.80 "HgN/A
10:00 AM68 °FPartly sunny.16 mph64%29.80 "HgN/A
Weather by CustomWeather, © 2015

See weather overviewHow to use our weather pages